• Join FlightAware (Why Join?)
  • Login
  • US Flag GB Flag 
16:12 EST


 

Airport Tracker/Info


-or-


 

Live Flight TrackerFlight Track Log ✈ N588AC ✈ 07-Jul-2013 ✈ 5A1 - KBCB

Flight Track Log - Related Links

Times and Time Zones

All times are in EDT time to prevent confusion due to time zone crossing. See the N588AC flight status page for this flight to view local times or setup timezone preferences in your user account.

Time Position Orientation Groundspeed Altitude Reporting Facility
EDT Latitude Longitude Course Direction KTS MPH feet Rate Location/Type
15:35 41.2233 -82.5819 154° Southeast 169 194 1,900  Level Cleveland Center
15:36 41.1697 -82.5472 154° Southeast 224 258 3,300 1,560 Climbing Cleveland Center
15:37 41.1203 -82.5069 148° Southeast 231 266 5,100 840 Climbing Cleveland Center
15:38 41.0519 -82.4775 162° South 238 274 5,000 660 Descending Cleveland Center
15:39 40.9900 -82.4400 155° Southeast 248 285 6,500 1,260 Climbing Cleveland Center
15:40 40.9344 -82.4053 155° Southeast 233 268 7,600 1,140 Climbing Cleveland Center
15:41 40.8661 -82.3706 159° South 248 285 8,800 1,500 Climbing Cleveland Center
15:42 40.8353 -82.3481 151° Southeast 259 298 10,000 1,980 Climbing Indianapolis Center
15:43 40.7697 -82.3078 155° Southeast 259 298 12,000 1,560 Climbing Indianapolis Center
15:44 40.6931 -82.2650 157° South 293 337 13,300 1,980 Climbing Indianapolis Center
15:45 40.6236 -82.2228 155° Southeast 279 321 16,100 2,580 Climbing Indianapolis Center
15:46 40.5511 -82.1814 157° South 245 282 18,700 1,980 Climbing Indianapolis Center
15:47 40.4861 -82.1450 157° South 254 292 20,300 1,080 Climbing Indianapolis Center
15:48 40.4183 -82.1053 156° South 261 300 21,000 840 Climbing Indianapolis Center
15:49 40.3381 -82.0672 160° South 295 339 22,100 1,140 Climbing Indianapolis Center
15:50 40.2611 -82.0325 161° South 293 337 23,400 900 Climbing Indianapolis Center
15:51 40.1831 -82.0022 163° South 290 334 24,000 1,080 Climbing Indianapolis Center
15:52 40.1025 -81.9658 161° South 299 344 25,700 1,440 Climbing Indianapolis Center
15:53 40.0275 -81.9358 163° South 284 327 27,000 600 Climbing Indianapolis Center
15:54 39.9503 -81.8981 159° South 294 338 27,000  Level Indianapolis Center
15:55 39.8572 -81.8447 156° South 308 354 27,000  Level Indianapolis Center
15:56 39.7744 -81.7986 157° South 319 367 27,000  Level Indianapolis Center
15:57 39.6925 -81.7528 157° South 318 366 27,000  Level Indianapolis Center
15:58 39.6111 -81.7061 156° South 319 367 27,000  Level Indianapolis Center
15:59 39.5294 -81.6597 156° South 319 367 27,000  Level Indianapolis Center
16:00 39.4486 -81.6144 157° South 317 365 27,000  Level Indianapolis Center
16:01 39.3669 -81.5700 157° South 317 365 27,000  Level Indianapolis Center
16:02 39.2858 -81.5225 156° South 319 367 27,000  Level Indianapolis Center
16:03 39.2039 -81.4783 157° South 318 366 27,000  Level Indianapolis Center
16:04 39.1067 -81.4233 156° South 316 364 27,000  Level Indianapolis Center
16:05 39.0239 -81.3775 157° South 320 368 27,000  Level Indianapolis Center
16:06 38.9414 -81.3314 157° South 321 369 27,000  Level Indianapolis Center
16:07 38.8594 -81.2856 156° South 319 367 27,000  Level Indianapolis Center
16:08 38.7764 -81.2400 157° South 320 368 27,000  Level Indianapolis Center
16:09 38.7028 -81.2008 157° South 283 326 27,000  Level Indianapolis Center
16:10 38.6350 -81.1642 157° South 265 305 27,000  Level Indianapolis Center
16:12 38.5683 -81.1550 174° South 244 281 27,000  Level Indianapolis Center
16:13 38.5036 -81.1525 178° South 231 266 27,000  Level Indianapolis Center
16:14 38.4394 -81.1497 178° South 230 265 27,000  Level Indianapolis Center
16:15 38.3631 -81.1467 178° South 228 262 27,000  Level Indianapolis Center
16:16 38.2994 -81.1439 178° South 227 261 27,000  Level Indianapolis Center
16:17 38.2353 -81.1411 178° South 229 264 27,000  Level Indianapolis Center
16:18 38.1711 -81.1381 178° South 230 265 27,000  Level Indianapolis Center
16:19 38.1083 -81.1358 178° South 225 259 27,000  Level Indianapolis Center
16:20 38.0447 -81.1344 179° South 227 261 27,000  Level Indianapolis Center
16:21 37.9817 -81.1319 178° South 225 259 27,000  Level Indianapolis Center
16:22 37.9189 -81.1292 178° South 225 259 27,000  Level Indianapolis Center
16:23 37.8569 -81.1264 178° South 224 258 27,000  Level Indianapolis Center
16:24 37.7817 -81.1239 178° South 226 260 27,000  Level Indianapolis Center
16:25 37.7275 -81.1553 205° Southwest 227 261 27,000  Level Indianapolis Center
16:26 37.6917 -81.2164 233° Southwest 234 269 27,000  Level Indianapolis Center
16:27 37.6733 -81.3117 256° West 239 275 27,000  Level Indianapolis Center
16:28 37.6569 -81.3900 255° West 239 275 27,000  Level Indianapolis Center
16:29 37.6439 -81.4731 259° West 247 284 27,000  Level Indianapolis Center
16:30 37.6289 -81.5567 257° West 247 284 27,000  Level Indianapolis Center
16:31 37.7042 -81.6025 334° Northwest 312 359 27,000 -120 Level Indianapolis Center
16:32 37.7464 -81.5103 60° Northeast 312 359 26,800 -720 Descending Indianapolis Center
16:33 37.7558 -81.4033 84° East 325 374 25,600 -1,320 Descending Indianapolis Center
16:34 37.7572 -81.2581 89° East 355 409 24,100 -1,560 Descending Indianapolis Center
16:35 37.7139 -81.1686 121° Southeast 311 358 22,400 -1,980 Descending Indianapolis Center
16:36 37.6572 -81.1006 136° Southeast 292 336 20,100 -3,120 Descending Indianapolis Center
16:37 37.5969 -81.0236 135° Southeast 308 354 16,100 -4,200 Descending Indianapolis Center
16:38 37.5194 -80.9247 135° Southeast 335 386 11,600 -3,660 Descending Indianapolis Center
16:39 37.4589 -80.8497 135° Southeast 318 366 8,600 -2,400 Descending Indianapolis Center
16:40 37.4075 -80.7847 135° Southeast 281 323 6,700 -1,320 Descending Indianapolis Center
16:41 37.3503 -80.7075 133° Southeast 262 302 6,000 -360 Descending Indianapolis Center
16:42 37.3094 -80.6522 133° Southeast 234 269 6,000 -600 Level Indianapolis Center
16:43 37.2797 -80.5956 123° Southeast 219 252 4,800 -1,200 Descending Indianapolis Center